User: anonymous   Login
Location: Fort Wayne
(41.1310°N, 85.1290°W)
Time: 12:25:10
(UTC-04:00)
Language:

OPAL - Orbit

View from above orbital plane
View from above orbital plane
View from above satellite
View from above satellite

Ground track
Ground track

The orbit data is extracted from the following two-line orbital elements,

1 26063U 00004C   16210.44245411 -.00000005  00000-0  18094-4 0  9998
2 26063 100.1898 148.3735 0036924 140.3020 220.0874 14.36625226864896
Epoch (UTC): 28 July 2016 10:37:08
Eccentricity: 0.0036924
inclination: 100.1898°
perigee height: 743 km
apogee height: 796 km
right ascension of ascending node: 148.3735°
argument of perigee: 140.3020°
revolutions per day: 14.36625226
mean anomaly at epoch: 220.0874°
orbit number at epoch: 86489

The dashed part of the orbit path shows where the satellite is in the earth's shadow,  

DLR